Погода в Большом Кирдяшеве

Россия / Пензенская область     53°42′22″N   43°46′12″E
темп.,
°C
ветер,
м/с
пор.,
м/с
влажн.,
%
обл.,
%
осадки,
мм/ч
давл.,
гПа
погр.,
м
28 октября, чт
чт2800:00+5зюз61368100 0.0 1016744
03:00+6з51177100 0.0 1016629
06:00+5зюз51086100 0.0 1016372
09:00+5зюз51183100 0.0 1016468
12:00+8юз6106894 0.0 1015756
15:00+8юз61068100 0.1 10131146
18:00+7зюз51088100 1.0 1013808
21:00+6з4894100 1.8 1014511
29 октября, пт
пт2900:00+6ссз4793100 0.2 1016707
03:00+6с598876 0.3 1020642
06:00+4с379084 0.0 1023195
09:00+6с247665 0.0 1026281
12:00+7с226997 0.0 1027679
15:00+8зсз126519 0.0 1028774
18:00+5юз2377100 0.0 102841
21:00+5юз3873100 0.0 1028275
30 октября, сб
сб3000:00+6юз51173100 0.0 1028452
03:00+5зюз5118087 0.0 1028346
06:00+5зюз4118835 0.0 1028285
09:00+7зюз5128979 0.0 1028345
12:00+10зюз6117896 0.0 1028479
15:00+12зюз511775 0.0 1028603
18:00+9зюз512894 0.0 1029347
21:00+8з512915 0.0 1029285
31 октября, вс
вс3100:00+7з411905 0.0 1030251
03:00+6зюз310865 0.0 1030214
06:00+5з39845 0.0 1031171
09:00+7зюз397629 0.0 1031234
12:00+11зюз58595 0.0 1030406
15:00+11зюз49615 0.0 1029469
18:00+8зюз39755 0.0 1030186
21:00+6юз397710 0.0 1030168
1 ноября, пн
пн100:00+5юз38795 0.0 1029145
03:00+5зюз37815 0.0 1029134
06:00+4юз38825 0.0 1029133
09:00+6юз38721 0.0 1029204
12:00+11зюз47534 0.0 1027397
15:00+11юз37550 0.0 1026355
18:00+7юз33710 0.0 102637
21:00+6ююз33750 0.0 102638